Other Public Products
Issued by NWS Grand Forks, ND

Home | Current Version | Previous Version | Graphics & Text | Print | Product List | Glossary On
Versions: 1 2 3 4 5 6 7 8 9 10 11 12 13 14 15 16 17 18 19 20 21 22 23 24 25 26 27 28 29 30 31 32 33 34 35 36 37 38 39 40 41 42 43 44 45 46 47 48 49 50
010
FPUS83 KFGF 280931
OPUFGF
PRAIRIE TO PINES WEATHER ROUNDUP
NATIONAL WEATHER SERVICE EASTERN NORTH DAKOTA/GRAND FORKS ND
400 AM CDT WED JUN 28 2017

 **SATELLITE DATA USED TO AUGMENT SKY COVER AT AUTOMATED STATIONS**
 *****  WEATHER ACROSS EASTERN NORTH DAKOTA  *****

CITY           SKY/WX    TMP DP  RH WIND       PRES   REMARKS
GRAND FORKS    FAIR      61  59  93 S15       29.49F
GRAND FORKS AF CLOUDY    60  59  96 S8        29.50F
GRAND CITY NWS NOT AVBL
BUXTON         NOT AVBL
DEVILS LAKE    RAIN      63  63 100 E6        29.56R FOG
FARGO          FAIR      66  60  81 SE15G25   29.48F
WAHPETON ARPT  PTSUNNY   63  55  77 E15G21    29.49F
$$

 *****  WEATHER ACROSS CENTRAL AND WESTERN NORTH DAKOTA  *****

CITY           SKY/WX    TMP DP  RH WIND       PRES   REMARKS
JAMESTOWN      FAIR      61  55  81 NE5       29.47F
BISMARCK       FAIR      63  61  93 NW6       29.56R
MINOT          FAIR      64  57  78 NW17      29.56R
MINOT AFB      FAIR      62  57  83 NW16      29.55S
GARRISON         N/A     62  57  83 N16       29.56S
WILLISTON      FAIR      64  42  44 N16G24    29.67F
DICKINSON      CLOUDY    61  55  81 NW14      29.65R
HETTINGER      CLOUDY    64  55  72 NW14      29.69R
$$

 *****  OTHER OBSERVATIONS NORTHEAST NORTH DAKOTA  *****

CITY           SKY/WX    TMP DP  RH WIND       PRES   REMARKS
WALHALLA       NOT AVBL
LANGDON        FAIR      63  63 100 S7        29.52S
CAVALIER       FAIR      63  52  67 SE6       29.50R
GRAFTON        PTSUNNY   59  59 100 CALM      29.54S
CANDO          NOT AVBL
FORT TOTTEN      N/A     62  62 100 CALM      29.95S
ROLLA            N/A     64  61  88 NW20      29.52F
RUGBY          NOT AVBL
 ***** THE ABOVE OBSERVATIONS ARE NON NWS ARE NOT QUALITY
        CONTROLLED AND MAY MIS-REPORT RAIN FOR SNOW...
$$

 *****  OTHER OBSERVATIONS SOUTHEAST NORTH DAKOTA *****

CITY           SKY/WX    TMP DP  RH WIND       PRES   REMARKS
COOPERSTOWN    FAIR      61  61 100 E9        29.49F
VALLEY CITY    FAIR      61  61 100 E8        29.47F
OAKES          NOT AVBL
GWINNER        CLOUDY    64  59  82 SE7G15    29.43F
SHEYENNE NWR     N/A     63  57  81 SE8       29.95S
BUFFALO        NOT AVBL
WYNDMERE       NOT AVBL
 ***** THE ABOVE OBSERVATIONS ARE NON NWS ARE NOT QUALITY
       CONTROLLED AND MAY MIS-REPORT RAIN FOR SNOW...
$$

  *****  WEATHER ACROSS NORTHERN MINNESOTA  *****

CITY           SKY/WX    TMP DP  RH WIND       PRES   REMARKS
FLAG ISLAND    FAIR      63  48  59 E5        29.59F
WARROAD        FAIR      63  54  72 SE9       29.58F
ROSEAU         FAIR      63  54  72 SE6       29.57S
HALLOCK        LGT RAIN  63  52  67 SE9       29.50F
THF RVR FALLS  LGT RAIN  59  55  88 SE21      29.56F
HALSTAD          N/A     61  57  87 E14         N/A
FOSSTON        RAIN      57  54  88 SE10G18   29.59F
BAUDETTE       MOCLDY    58  50  75 SE7       29.60F
WASKISH        CLOUDY    61  52  72 SE7       29.62R
CROOKSTON      DRIZZLE   57  57 100 SE16      29.52F
$$
  *****  WEATHER ACROSS CENTRAL AND WEST MINNESOTA  *****

CITY           SKY/WX    TMP DP  RH WIND       PRES   REMARKS
BEMIDJI        LGT RAIN  59  53  80 SE7       29.64R
PARK RAPIDS    LGT RAIN  60  52  74 SE8       29.62F
WADENA         CLOUDY    57  55  94 SE5       29.61F
DETROIT LAKES  RAIN      59  57  94 SE12      29.59F
MOORHEAD       FAIR      64  61  88 SE15G22   29.48F
FERGUS FALLS   MOCLDY    63  59  88 E15G21    29.51F
ELBOW LAKE     CLOUDY    63  59  86 SE17      29.53F
MORRIS MN      FAIR      64  59  82 SE18      29.51F
STAPLES        LGT RAIN  61  52  72 SE9       29.61F
WHEATON        MOCLDY    66  61  82 SE13      29.49S
$$
  *****  WEATHER ELSEWHERE ACROSS MINNESOTA  *****

CITY           SKY/WX    TMP DP  RH WIND       PRES   REMARKS
DULUTH         FAIR      57  47  69 S7        29.74R
INTRNTL FALLS  CLOUDY    54  46  74 SE8       29.65F
ELY            FAIR      48  45  87 CALM      29.72F
CLOQUET        FAIR      57  45  62 SE3       29.72F
BRAINERD       MOCLDY    63  49  60 SE8       29.65S
HIBBING        FAIR      50  45  83 S3        29.71S
ALEXANDRIA     CLOUDY    62  60  93 SE13G20   29.58F
SAINT CLOUD    RAIN      62  60  93 S15G23    29.65S FOG
MINNEAPOLIS    TSTM      64  54  69 S16G26    29.71R
$$

  *****  WEATHER ACROSS SOUTH DAKOTA  *****

CITY           SKY/WX    TMP DP  RH WIND       PRES   REMARKS
SIOUX FALLS    CLOUDY    66 N/A N/A SW5       29.55F
BROOKINGS      FAIR      64  62  93 S12       29.53F
WATERTOWN      FAIR      68  62  81 S16G25    29.48F
HURON          FAIR      68  60  75 SW12      29.50F
SISSETON         N/A     67  62  84 S8        29.43F
ABERDEEN       FAIR      66  60  81 S16       29.46F
MITCHELL       FAIR      68  61  78 S10       29.54F
PIERRE         LGT RAIN  70  55  59 W15       29.57R
MOBRIDGE       FAIR      69  56  62 NW14      29.53R
RAPID CITY     FAIR      63  50  62 N13       29.75R
$$

  *****  SOME WEATHER IN NEARBY STATES *****

CITY           SKY/WX    TMP DP  RH WIND       PRES   REMARKS
GLASGOW MT     FAIR      50  40  68 E8        29.73F
GREAT FALLS MT FAIR      52  42  69 SW10      29.77S
CHEYENNE WY    FAIR      57  39  51 NW5       29.98F
SCOTTSBLUFF NE FAIR      56  49  77 NW7       29.86S
OMAHA NE       TSTM      67  63  87 SE20      29.69F
DES MOINES IA  CLOUDY    75  63  66 S18       29.78R THUNDER
DAVENPORT IA   NOT AVBL
CHICAGO IL     FAIR      60  47  61 S10       30.00S
EAU CLAIRE WI  MOCLDY    63  47  55 S12       29.78S
LA CROSSE WI   MOCLDY    70  50  49 S12       29.80F
$$

  *****  SOME NATIONAL WEATHER *****

CITY           SKY/WX    TMP DP  RH WIND       PRES   REMARKS
LA GUARDIA NY  FAIR      64  53  67 NW12      30.07R
RALEIGH NC     FAIR      60  56  86 N3        30.16R
ATLANTA GA     FAIR      69  57  65 NE8       30.10S
NEW ORLEANS LA MOCLDY    75  70  84 CALM      29.98S
OKLAHOMA CITY  FAIR      72  68  87 S15       29.90S
ALBUQUERQUE NM FAIR      73  35  25 S14       30.02F
SALT LAKE CITY FAIR      69  38  32 SW6       29.84S
LOS ANGELES CA FAIR      63  59  87 S14       29.85S
BOISE ID       FAIR      66  48  52 SW3       29.79S
SEATTLE WA     FAIR      55  51  86 S9        29.99S
$$

*** WEATHER ACROSS MANITOBA...SASKATCHEWAN AND ONTARIO ***
                ***ONTARIO***

CITY           SKY/WX    TMP DP  RH WIND       PRES   REMARKS
GERALDTON      MOCLDY    50  46  87 S5        29.76F
THUNDER BAY    PTCLDY    48  46  93 NE5       29.77F
SIOUX LOOKOUT  PTCLDY    48  48 100 SE5       29.72R
TORONTO        PTCLDY    54  48  82 W7        30.03R
BIG TROUT LK   LGT RAIN  45  43  93 NE7       29.81F FOG
PICKLE LAKE    NOT AVBL
DRYDEN         CLOUDY    59  50  72 SE5       29.69F
KENORA         MOCLDY    61  48  63 SE8       29.64F
$$
                *** MANITOBA***

CITY           SKY/WX    TMP DP  RH WIND       PRES   REMARKS
BRANDON        PTCLDY    61  57  88 NW10      29.51S
DAUPHIN        CLEAR     63  59  88 W12       29.49S
ISLAND LAKE    CLOUDY    50  46  87 E8        29.74F
PILOT MOUND      N/A     59  54  82 S3          N/A
THE PAS        CLOUDY    52  50  93 E13G28    29.50F
THOMPSON       MOCLDY    46  37  71 E13G23    29.78S
WINNIPEG       CLOUDY    64  50  59 SE10      29.51F
LYNN LAKE      CLOUDY    46  36  66 E16G28    29.77R
CHURCHILL      FOG       39  39 100 E10       30.00R VSB 1/8
GILLAM         CLOUDY    37  37 100 E6        29.89F
$$
                ***SASKATCHEWAN***

CITY           SKY/WX    TMP DP  RH WIND       PRES   REMARKS
ESTEVAN        MOCLDY    52  46  82 NW14G22   29.64S
KINDERSLEY     PTCLDY    50  46  87 SW5       29.73F
LLOYDMINSTER   CLEAR     48  46  93 SW8       29.65F
PRINCE ALBERT  PTCLDY    52  46  82 W9        29.59R
REGINA         CLEAR     43  41  93 W9        29.69F
YORKTON        CLEAR     52  46  82 W9        29.59S



USA.gov is the U.S. government's official web portal to all federal, state and local government web resources and services.